Time,TemperatureF,DewpointF,PressureIn,WindDirection,WindDirectionDegrees,WindSpeedMPH,WindSpeedGustMPH,Humidity,HourlyPrecipIn,Conditions,Clouds,dailyrainin,SoftwareType,DateUTC
2013-01-18 00:01:00,36.5,23.9,30.41,WNW,293,0.0,0.0,60,0.00,,,0.00,WUHU216HW,2013-01-18 05:01:00,
2013-01-18 00:06:00,36.5,23.9,30.41,SE,135,0.0,0.0,60,0.00,,,0.00,WUHU216HW,2013-01-18 05:06:00,
2013-01-18 00:11:00,36.5,23.9,30.41,West,270,0.0,0.0,60,0.00,,,0.00,WUHU216HW,2013-01-18 05:11:00,
2013-01-18 00:16:00,36.3,23.8,30.42,West,270,0.0,0.0,60,0.00,,,0.00,WUHU216HW,2013-01-18 05:16:00,
2013-01-18 00:21:00,36.3,23.8,30.41,West,270,0.0,0.0,60,0.00,,,0.00,WUHU216HW,2013-01-18 05:21:00,
2013-01-18 00:26:00,36.3,23.8,30.42,West,270,0.0,0.0,60,0.00,,,0.00,WUHU216HW,2013-01-18 05:26:00,
2013-01-18 00:31:00,36.3,23.8,30.41,West,270,0.0,0.0,60,0.00,,,0.00,WUHU216HW,2013-01-18 05:31:00,
2013-01-18 00:36:00,36.3,23.8,30.39,NE,45,0.0,0.0,60,0.00,,,0.00,WUHU216HW,2013-01-18 05:36:00,
2013-01-18 00:41:00,36.3,23.8,30.40,ENE,68,0.0,0.0,60,0.00,,,0.00,WUHU216HW,2013-01-18 05:41:00,
2013-01-18 00:46:00,36.1,24.0,30.40,NW,315,0.0,0.0,61,0.00,,,0.00,WUHU216HW,2013-01-18 05:46:00,
2013-01-18 00:51:00,35.9,23.5,30.40,West,270,0.0,0.0,60,0.00,,,0.00,WUHU216HW,2013-01-18 05:51:00,
2013-01-18 00:56:00,35.7,23.3,30.42,WNW,293,0.0,0.0,60,0.00,,,0.00,WUHU216HW,2013-01-18 05:56:00,
2013-01-18 01:01:00,35.7,23.3,30.43,WNW,293,0.0,0.0,60,0.00,,,0.00,WUHU216HW,2013-01-18 06:01:00,
2013-01-18 01:06:00,35.6,23.1,30.43,WNW,293,0.0,0.0,60,0.00,,,0.00,WUHU216HW,2013-01-18 06:06:00,
2013-01-18 01:11:00,35.4,23.0,30.44,WNW,293,4.4,4.4,60,0.00,,,0.00,WUHU216HW,2013-01-18 06:11:00,
2013-01-18 01:16:00,35.4,23.0,30.43,WNW,293,0.0,4.4,60,0.00,,,0.00,WUHU216HW,2013-01-18 06:16:00,
2013-01-18 01:21:00,35.2,23.1,30.42,WNW,293,0.0,4.4,61,0.00,,,0.00,WUHU216HW,2013-01-18 06:21:00,
2013-01-18 01:26:00,34.8,22.8,30.43,NW,315,0.0,0.0,61,0.00,,,0.00,WUHU216HW,2013-01-18 06:26:00,
2013-01-18 01:31:00,34.8,22.8,30.46,WNW,293,0.0,0.0,61,0.00,,,0.00,WUHU216HW,2013-01-18 06:31:00,
2013-01-18 01:36:00,34.5,22.6,30.45,WNW,293,0.0,0.0,61,0.00,,,0.00,WUHU216HW,2013-01-18 06:36:00,
2013-01-18 01:41:00,34.3,22.2,30.44,NW,315,5.1,5.1,61,0.00,,,0.00,WUHU216HW,2013-01-18 06:41:00,
2013-01-18 01:46:00,34.3,22.2,30.46,NW,315,0.2,5.1,61,0.00,,,0.00,WUHU216HW,2013-01-18 06:46:00,
2013-01-18 01:51:00,33.9,22.2,30.47,WNW,293,0.0,5.1,62,0.00,,,0.00,WUHU216HW,2013-01-18 06:51:00,
2013-01-18 01:56:00,33.8,22.1,30.45,WNW,293,0.0,4.0,62,0.00,,,0.00,WUHU216HW,2013-01-18 06:56:00,
2013-01-18 02:01:00,33.6,21.9,30.46,NW,315,0.0,4.0,62,0.00,,,0.00,WUHU216HW,2013-01-18 07:01:00,
2013-01-18 02:06:00,33.6,21.9,30.47,WNW,293,0.0,0.0,62,0.00,,,0.00,WUHU216HW,2013-01-18 07:06:00,
2013-01-18 02:11:00,33.6,21.5,30.47,NNE,23,0.0,0.0,61,0.00,,,0.00,WUHU216HW,2013-01-18 07:11:00,
2013-01-18 02:16:00,33.6,21.2,30.46,North,0,0.0,0.0,60,0.00,,,0.00,WUHU216HW,2013-01-18 07:16:00,
2013-01-18 02:21:00,33.4,20.6,30.45,NNW,338,0.0,0.0,59,0.00,,,0.00,WUHU216HW,2013-01-18 07:21:00,
2013-01-18 02:26:00,33.2,20.4,30.46,NW,315,0.0,0.0,59,0.00,,,0.00,WUHU216HW,2013-01-18 07:26:00,
2013-01-18 02:31:00,33.0,20.3,30.47,WNW,293,0.0,0.0,59,0.00,,,0.00,WUHU216HW,2013-01-18 07:31:00,
2013-01-18 02:36:00,33.0,20.3,30.47,NW,315,0.0,4.2,59,0.00,,,0.00,WUHU216HW,2013-01-18 07:36:00,
2013-01-18 02:41:00,33.0,20.3,30.46,WNW,293,0.0,5.3,59,0.00,,,0.00,WUHU216HW,2013-01-18 07:41:00,
2013-01-18 02:46:00,32.9,19.7,30.47,NW,315,0.0,5.3,58,0.00,,,0.00,WUHU216HW,2013-01-18 07:46:00,
2013-01-18 02:51:00,32.7,19.5,30.48,WNW,293,0.0,6.2,58,0.00,,,0.00,WUHU216HW,2013-01-18 07:51:00,
2013-01-18 02:56:00,32.5,19.3,30.48,NW,315,0.0,6.2,58,0.00,,,0.00,WUHU216HW,2013-01-18 07:56:00,
2013-01-18 03:01:00,32.5,19.3,30.48,NW,315,0.0,0.0,58,0.00,,,0.00,WUHU216HW,2013-01-18 08:01:00,
2013-01-18 03:06:00,32.5,19.3,30.48,NW,315,0.0,0.0,58,0.00,,,0.00,WUHU216HW,2013-01-18 08:06:00,
2013-01-18 03:11:00,32.5,18.9,30.48,WNW,293,0.0,7.6,57,0.00,,,0.00,WUHU216HW,2013-01-18 08:11:00,
2013-01-18 03:16:00,32.3,18.7,30.48,WNW,293,0.0,7.6,57,0.00,,,0.00,WUHU216HW,2013-01-18 08:16:00,
2013-01-18 03:21:00,32.1,18.6,30.48,NW,315,0.0,3.5,57,0.00,,,0.00,WUHU216HW,2013-01-18 08:21:00,
2013-01-18 03:26:00,32.1,18.1,30.48,NW,315,0.0,3.5,56,0.00,,,0.00,WUHU216HW,2013-01-18 08:26:00,
2013-01-18 03:31:00,31.8,17.4,30.48,NW,315,4.6,7.3,55,0.00,,,0.00,WUHU216HW,2013-01-18 08:31:00,
2013-01-18 03:36:00,31.6,17.6,30.47,WNW,293,1.1,7.3,56,0.00,,,0.00,WUHU216HW,2013-01-18 08:36:00,
2013-01-18 03:41:00,31.2,17.7,30.48,WNW,293,0.0,4.6,57,0.00,,,0.00,WUHU216HW,2013-01-18 08:41:00,
2013-01-18 03:46:00,31.1,18.0,30.48,North,0,0.0,3.3,58,0.00,,,0.00,WUHU216HW,2013-01-18 08:46:00,
2013-01-18 03:51:00,30.9,17.8,30.48,WNW,293,0.0,0.0,58,0.00,,,0.00,WUHU216HW,2013-01-18 08:51:00,
2013-01-18 03:56:00,30.9,18.2,30.48,WNW,293,0.0,0.0,59,0.00,,,0.00,WUHU216HW,2013-01-18 08:56:00,
2013-01-18 04:01:00,30.7,18.5,30.48,WNW,293,0.0,0.0,60,0.00,,,0.00,WUHU216HW,2013-01-18 09:01:00,
2013-01-18 04:06:00,30.7,18.5,30.48,WNW,293,0.0,0.0,60,0.00,,,0.00,WUHU216HW,2013-01-18 09:06:00,
2013-01-18 04:11:00,30.7,18.0,30.49,NW,315,0.0,0.0,59,0.00,,,0.00,WUHU216HW,2013-01-18 09:11:00,
2013-01-18 04:16:00,30.7,18.0,30.49,WNW,293,0.0,0.0,59,0.00,,,0.00,WUHU216HW,2013-01-18 09:16:00,
2013-01-18 04:21:00,30.7,18.0,30.49,NW,315,0.0,0.0,59,0.00,,,0.00,WUHU216HW,2013-01-18 09:21:00,
2013-01-18 04:26:00,30.5,17.4,30.50,NW,315,0.0,2.0,58,0.00,,,0.00,WUHU216HW,2013-01-18 09:26:00,
2013-01-18 04:31:00,30.3,17.2,30.50,WNW,293,6.9,6.9,58,0.00,,,0.00,WUHU216HW,2013-01-18 09:31:00,
2013-01-18 04:36:00,30.3,16.8,30.50,WNW,293,1.7,6.9,57,0.00,,,0.00,WUHU216HW,2013-01-18 09:36:00,
2013-01-18 04:41:00,30.2,16.7,30.51,WNW,293,0.0,6.9,57,0.00,,,0.00,WUHU216HW,2013-01-18 09:41:00,
2013-01-18 04:46:00,30.0,16.1,30.52,WNW,293,0.0,1.7,56,0.00,,,0.00,WUHU216HW,2013-01-18 09:46:00,
2013-01-18 04:51:00,30.0,16.1,30.52,NW,315,2.0,5.5,56,0.00,,,0.00,WUHU216HW,2013-01-18 09:51:00,
2013-01-18 04:56:00,29.8,15.5,30.52,WNW,293,0.0,5.5,55,0.00,,,0.00,WUHU216HW,2013-01-18 09:56:00,
2013-01-18 05:01:00,29.6,15.4,30.52,NW,315,0.0,0.0,55,0.00,,,0.00,WUHU216HW,2013-01-18 10:01:00,
2013-01-18 05:06:00,29.4,15.2,30.53,WNW,293,0.0,0.0,55,0.00,,,0.00,WUHU216HW,2013-01-18 10:06:00,
2013-01-18 05:11:00,29.4,15.6,30.54,NW,315,0.0,0.0,56,0.00,,,0.00,WUHU216HW,2013-01-18 10:11:00,
2013-01-18 05:16:00,29.6,15.8,30.54,ESE,113,0.0,0.0,56,0.00,,,0.00,WUHU216HW,2013-01-18 10:16:00,
2013-01-18 05:21:00,29.6,15.8,30.55,West,270,0.0,0.0,56,0.00,,,0.00,WUHU216HW,2013-01-18 10:21:00,
2013-01-18 05:26:00,29.8,15.9,30.56,WNW,293,0.0,0.0,56,0.00,,,0.00,WUHU216HW,2013-01-18 10:26:00,
2013-01-18 05:31:00,29.4,15.2,30.57,NW,315,7.1,7.3,55,0.00,,,0.00,WUHU216HW,2013-01-18 10:31:00,
2013-01-18 05:36:00,29.4,15.2,30.56,WNW,293,3.1,7.3,55,0.00,,,0.00,WUHU216HW,2013-01-18 10:36:00,
2013-01-18 05:41:00,29.3,15.0,30.57,West,270,0.0,7.1,55,0.00,,,0.00,WUHU216HW,2013-01-18 10:41:00,
2013-01-18 05:46:00,29.3,15.0,30.57,WNW,293,0.0,0.0,55,0.00,,,0.00,WUHU216HW,2013-01-18 10:46:00,
2013-01-18 05:51:00,29.3,15.0,30.57,WNW,293,8.2,8.2,55,0.00,,,0.00,WUHU216HW,2013-01-18 10:51:00,
2013-01-18 05:56:00,29.1,14.9,30.58,NNW,338,4.6,8.2,55,0.00,,,0.00,WUHU216HW,2013-01-18 10:56:00,
2013-01-18 06:01:00,29.1,14.9,30.59,WNW,293,0.0,8.2,55,0.00,,,0.00,WUHU216HW,2013-01-18 11:01:00,
2013-01-18 06:06:00,28.9,14.7,30.59,WSW,248,0.0,8.2,55,0.00,,,0.00,WUHU216HW,2013-01-18 11:06:00,
2013-01-18 06:11:00,28.9,14.7,30.60,West,270,5.8,7.6,55,0.00,,,0.00,WUHU216HW,2013-01-18 11:11:00,
2013-01-18 06:16:00,28.7,15.0,30.60,WNW,293,4.0,7.6,56,0.00,,,0.00,WUHU216HW,2013-01-18 11:16:00,
2013-01-18 06:21:00,28.5,14.8,30.61,WNW,293,0.0,6.2,56,0.00,,,0.00,WUHU216HW,2013-01-18 11:21:00,
2013-01-18 06:26:00,28.5,14.8,30.61,West,270,0.0,4.0,56,0.00,,,0.00,WUHU216HW,2013-01-18 11:26:00,
2013-01-18 06:31:00,28.5,14.8,30.61,West,270,0.0,0.0,56,0.00,,,0.00,WUHU216HW,2013-01-18 11:31:00,
2013-01-18 06:36:00,28.5,14.8,30.62,WNW,293,7.3,7.3,56,0.00,,,0.00,WUHU216HW,2013-01-18 11:36:00,
2013-01-18 06:41:00,28.2,14.5,30.62,NW,315,0.0,7.3,56,0.00,,,0.00,WUHU216HW,2013-01-18 11:41:00,
2013-01-18 06:47:00,28.0,13.9,30.63,NW,315,0.0,0.0,55,0.00,,,0.00,WUHU216HW,2013-01-18 11:47:00,
2013-01-18 06:52:00,28.0,13.9,30.63,NNW,338,0.0,0.0,55,0.00,,,0.00,WUHU216HW,2013-01-18 11:52:00,
2013-01-18 06:57:00,27.8,14.1,30.64,NW,315,0.0,0.0,56,0.00,,,0.00,WUHU216HW,2013-01-18 11:57:00,
2013-01-18 07:02:00,27.6,13.9,30.64,West,270,0.0,0.0,56,0.00,,,0.00,WUHU216HW,2013-01-18 12:02:00,
2013-01-18 07:07:00,27.6,13.9,30.65,NW,315,0.0,0.0,56,0.00,,,0.00,WUHU216HW,2013-01-18 12:07:00,
2013-01-18 07:12:00,27.6,13.9,30.65,NW,315,0.0,0.0,56,0.00,,,0.00,WUHU216HW,2013-01-18 12:12:00,
2013-01-18 07:17:00,27.6,13.5,30.65,NW,315,5.8,5.8,55,0.00,,,0.00,WUHU216HW,2013-01-18 12:17:00,
2013-01-18 07:22:00,27.5,13.3,30.66,West,270,0.6,5.8,55,0.00,,,0.00,WUHU216HW,2013-01-18 12:22:00,
2013-01-18 07:27:00,27.3,13.1,30.67,WNW,293,6.4,6.4,55,0.00,,,0.00,WUHU216HW,2013-01-18 12:27:00,
2013-01-18 07:32:00,27.3,13.1,30.67,NW,315,7.6,7.6,55,0.00,,,0.00,WUHU216HW,2013-01-18 12:32:00,
2013-01-18 07:37:00,27.1,13.0,30.68,WNW,293,0.0,7.6,55,0.00,,,0.00,WUHU216HW,2013-01-18 12:37:00,
2013-01-18 07:42:00,27.1,13.0,30.68,NNW,338,0.0,7.6,55,0.00,,,0.00,WUHU216HW,2013-01-18 12:42:00,
2013-01-18 07:47:00,27.1,13.0,30.69,WNW,293,4.4,4.4,55,0.00,,,0.00,WUHU216HW,2013-01-18 12:47:00,
2013-01-18 07:52:00,27.3,13.1,30.69,WNW,293,0.0,4.4,55,0.00,,,0.00,WUHU216HW,2013-01-18 12:52:00,
2013-01-18 07:57:00,27.5,13.7,30.69,NW,315,2.2,4.4,56,0.00,,,0.00,WUHU216HW,2013-01-18 12:57:00,
2013-01-18 08:02:00,27.6,13.9,30.70,WSW,248,6.2,6.2,56,0.00,,,0.00,WUHU216HW,2013-01-18 13:02:00,
2013-01-18 08:07:00,28.2,14.5,30.71,WNW,293,0.0,6.2,56,0.00,,,0.00,WUHU216HW,2013-01-18 13:07:00,
2013-01-18 08:12:00,29.3,15.9,30.71,WNW,293,0.0,6.2,57,0.00,,,0.00,WUHU216HW,2013-01-18 13:12:00,
2013-01-18 08:17:00,29.4,14.8,30.72,WNW,293,0.0,0.0,54,0.00,,,0.00,WUHU216HW,2013-01-18 13:17:00,
2013-01-18 08:22:00,29.1,14.5,30.72,WNW,293,0.0,4.4,54,0.00,,,0.00,WUHU216HW,2013-01-18 13:22:00,
2013-01-18 08:27:00,28.7,14.1,30.72,WSW,248,0.0,4.4,54,0.00,,,0.00,WUHU216HW,2013-01-18 13:27:00,
2013-01-18 08:32:00,28.5,14.0,30.73,NW,315,0.0,5.5,54,0.00,,,0.00,WUHU216HW,2013-01-18 13:32:00,
2013-01-18 08:37:00,28.5,14.0,30.73,NW,315,7.3,7.3,54,0.00,,,0.00,WUHU216HW,2013-01-18 13:37:00,
2013-01-18 08:42:00,28.5,14.3,30.73,WNW,293,0.0,8.2,54,0.00,,,0.00,WUHU216HW,2013-01-18 13:42:00,
2013-01-18 08:47:00,30.5,15.3,30.73,WNW,293,5.8,8.2,53,0.00,,,0.00,WUHU216HW,2013-01-18 13:47:00,
2013-01-18 08:52:00,32.5,16.7,30.73,NW,315,4.9,5.8,52,0.00,,,0.00,WUHU216HW,2013-01-18 13:52:00,
2013-01-18 08:57:00,34.8,16.5,30.74,WNW,293,0.0,5.8,47,0.00,,,0.00,WUHU216HW,2013-01-18 13:57:00,
2013-01-18 09:02:00,35.9,17.0,30.75,North,0,0.0,6.7,46,0.00,,,0.00,WUHU216HW,2013-01-18 14:02:00,
2013-01-18 09:07:00,36.6,17.2,30.76,NNW,338,0.0,6.7,45,0.00,,,0.00,WUHU216HW,2013-01-18 14:07:00,
2013-01-18 09:12:00,37.0,15.9,30.76,NW,315,0.0,4.9,43,0.00,,,0.00,WUHU216HW,2013-01-18 14:12:00,
2013-01-18 09:17:00,36.1,15.1,30.77,West,270,0.0,6.7,42,0.00,,,0.00,WUHU216HW,2013-01-18 14:17:00,
2013-01-18 09:22:00,35.7,14.8,30.77,West,270,1.5,6.7,42,0.00,,,0.00,WUHU216HW,2013-01-18 14:22:00,
2013-01-18 09:27:00,34.3,14.0,30.78,WNW,293,0.0,1.5,42,0.00,,,0.00,WUHU216HW,2013-01-18 14:27:00,
2013-01-18 09:32:00,33.6,12.8,30.78,WNW,293,0.0,0.0,42,0.00,,,0.00,WUHU216HW,2013-01-18 14:32:00,
2013-01-18 09:37:00,32.7,12.0,30.79,WNW,293,5.1,5.1,42,0.00,,,0.00,WUHU216HW,2013-01-18 14:37:00,
2013-01-18 09:42:00,32.5,12.3,30.79,WSW,248,0.0,5.1,43,0.00,,,0.00,WUHU216HW,2013-01-18 14:42:00,
2013-01-18 09:47:00,32.7,12.5,30.79,West,270,0.0,0.0,43,0.00,,,0.00,WUHU216HW,2013-01-18 14:47:00,
2013-01-18 09:52:00,32.5,12.3,30.80,WNW,293,0.0,0.0,43,0.00,,,0.00,WUHU216HW,2013-01-18 14:52:00,
2013-01-18 09:57:00,31.8,12.2,30.80,WNW,293,0.0,0.0,44,0.00,,,0.00,WUHU216HW,2013-01-18 14:57:00,
2013-01-18 10:02:00,31.2,11.7,30.80,NW,315,0.0,6.7,44,0.00,,,0.00,WUHU216HW,2013-01-18 15:02:00,
2013-01-18 10:07:00,30.9,11.4,30.81,NW,315,0.0,6.7,44,0.00,,,0.00,WUHU216HW,2013-01-18 15:07:00,
2013-01-18 10:12:00,30.2,10.4,30.80,WNW,293,0.0,0.0,43,0.00,,,0.00,WUHU216HW,2013-01-18 15:12:00,
2013-01-18 10:17:00,30.0,10.6,30.81,NW,315,3.5,6.2,44,0.00,,,0.00,WUHU216HW,2013-01-18 15:17:00,
2013-01-18 10:22:00,29.8,10.4,30.81,NNW,338,0.8,6.2,44,0.00,,,0.00,WUHU216HW,2013-01-18 15:22:00,
2013-01-18 10:27:00,30.0,10.3,30.81,WNW,293,0.0,5.3,44,0.00,,,0.00,WUHU216HW,2013-01-18 15:27:00,
2013-01-18 10:32:00,30.2,10.2,30.81,WNW,293,3.8,3.8,43,0.00,,,0.00,WUHU216HW,2013-01-18 15:32:00,
2013-01-18 10:37:00,30.0,9.6,30.81,NW,315,6.7,6.7,42,0.00,,,0.00,WUHU216HW,2013-01-18 15:37:00,
2013-01-18 10:42:00,30.7,10.2,30.81,NNW,338,2.9,6.7,42,0.00,,,0.00,WUHU216HW,2013-01-18 15:42:00,
2013-01-18 10:47:00,31.1,10.0,30.81,NW,315,0.0,4.2,41,0.00,,,0.00,WUHU216HW,2013-01-18 15:47:00,
2013-01-18 10:52:00,31.2,9.7,30.81,WNW,293,6.9,6.9,40,0.00,,,0.00,WUHU216HW,2013-01-18 15:52:00,
2013-01-18 10:57:00,31.6,10.0,30.81,WNW,293,1.1,9.1,40,0.00,,,0.00,WUHU216HW,2013-01-18 15:57:00,
2013-01-18 11:02:00,32.0,9.7,30.81,WNW,293,7.1,9.1,39,0.00,,,0.00,WUHU216HW,2013-01-18 16:02:00,
2013-01-18 11:07:00,31.8,8.9,30.81,NW,315,5.1,7.1,38,0.00,,,0.00,WUHU216HW,2013-01-18 16:07:00,
2013-01-18 11:12:00,32.1,8.6,30.81,West,270,0.0,7.1,37,0.00,,,0.00,WUHU216HW,2013-01-18 16:12:00,
2013-01-18 11:17:00,32.5,8.9,30.80,NW,315,0.0,7.1,37,0.00,,,0.00,WUHU216HW,2013-01-18 16:17:00,
2013-01-18 11:22:00,32.7,8.5,30.80,NW,315,0.0,4.9,36,0.00,,,0.00,WUHU216HW,2013-01-18 16:22:00,
2013-01-18 11:27:00,33.6,8.0,30.80,NW,315,0.0,6.0,34,0.00,,,0.00,WUHU216HW,2013-01-18 16:27:00,
2013-01-18 11:32:00,33.6,7.4,30.80,West,270,0.0,6.9,33,0.00,,,0.00,WUHU216HW,2013-01-18 16:32:00,
2013-01-18 11:37:00,33.6,6.8,30.80,WNW,293,6.0,6.9,32,0.00,,,0.00,WUHU216HW,2013-01-18 16:37:00,
2013-01-18 11:42:00,33.4,7.2,30.80,WNW,293,0.6,6.0,33,0.00,,,0.00,WUHU216HW,2013-01-18 16:42:00,
2013-01-18 11:47:00,33.6,6.8,30.80,WNW,293,0.0,5.8,32,0.00,,,0.00,WUHU216HW,2013-01-18 16:47:00,
2013-01-18 11:52:00,33.9,7.7,30.80,South,180,0.0,4.2,33,0.00,,,0.00,WUHU216HW,2013-01-18 16:52:00,
2013-01-18 11:57:00,34.1,7.8,30.80,NNW,338,0.0,9.1,33,0.00,,,0.00,WUHU216HW,2013-01-18 16:57:00,
2013-01-18 12:02:00,33.6,7.4,30.81,NW,315,4.2,9.1,33,0.00,,,0.00,WUHU216HW,2013-01-18 17:02:00,
2013-01-18 12:07:00,33.6,7.4,30.80,WNW,293,0.0,4.2,33,0.00,,,0.00,WUHU216HW,2013-01-18 17:07:00,
2013-01-18 12:12:00,33.6,7.4,30.81,NW,315,0.0,6.0,33,0.00,,,0.00,WUHU216HW,2013-01-18 17:12:00,
2013-01-18 12:17:00,33.6,8.0,30.81,WNW,293,4.0,6.0,34,0.00,,,0.00,WUHU216HW,2013-01-18 17:17:00,
2013-01-18 12:22:00,33.8,7.6,30.81,NNW,338,6.9,6.9,33,0.00,,,0.00,WUHU216HW,2013-01-18 17:22:00,
2013-01-18 12:27:00,33.6,6.8,30.81,WNW,293,2.4,6.9,32,0.00,,,0.00,WUHU216HW,2013-01-18 17:27:00,
2013-01-18 12:32:00,33.6,6.8,30.81,WNW,293,0.0,6.9,32,0.00,,,0.00,WUHU216HW,2013-01-18 17:32:00,
2013-01-18 12:37:00,33.4,6.6,30.81,WNW,293,0.0,0.0,32,0.00,,,0.00,WUHU216HW,2013-01-18 17:37:00,
2013-01-18 12:42:00,33.6,6.8,30.81,ENE,68,0.0,1.7,32,0.00,,,0.00,WUHU216HW,2013-01-18 17:42:00,
2013-01-18 12:47:00,33.6,6.1,30.81,NW,315,4.6,6.2,31,0.00,,,0.00,WUHU216HW,2013-01-18 17:47:00,
2013-01-18 12:52:00,33.6,5.5,30.80,NNW,338,0.0,7.1,30,0.00,,,0.00,WUHU216HW,2013-01-18 17:52:00,
2013-01-18 12:57:00,33.6,6.1,30.80,North,0,0.0,7.1,31,0.00,,,0.00,WUHU216HW,2013-01-18 17:57:00,
2013-01-18 13:02:00,34.1,6.6,30.80,NNW,338,5.1,5.1,31,0.00,,,0.00,WUHU216HW,2013-01-18 18:02:00,
2013-01-18 13:07:00,34.1,6.6,30.80,NW,315,2.9,5.1,31,0.00,,,0.00,WUHU216HW,2013-01-18 18:07:00,
2013-01-18 13:12:00,34.3,6.7,30.79,NW,315,7.1,7.1,31,0.00,,,0.00,WUHU216HW,2013-01-18 18:12:00,
2013-01-18 13:17:00,34.7,6.4,30.79,WNW,293,0.0,7.1,30,0.00,,,0.00,WUHU216HW,2013-01-18 18:17:00,
2013-01-18 13:22:00,34.5,6.2,30.80,NW,315,0.0,6.0,30,0.00,,,0.00,WUHU216HW,2013-01-18 18:22:00,
2013-01-18 13:27:00,34.8,7.2,30.80,NW,315,6.2,6.2,31,0.00,,,0.00,WUHU216HW,2013-01-18 18:27:00,
2013-01-18 13:33:00,35.2,6.8,30.81,WNW,293,4.4,6.2,30,0.00,,,0.00,WUHU216HW,2013-01-18 18:33:00,
2013-01-18 13:38:00,35.2,6.8,30.81,NW,315,0.0,4.4,30,0.00,,,0.00,WUHU216HW,2013-01-18 18:38:00,
2013-01-18 13:43:00,35.2,5.9,30.81,SSW,203,4.0,4.4,29,0.00,,,0.00,WUHU216HW,2013-01-18 18:43:00,
2013-01-18 13:48:00,34.8,5.5,30.81,WSW,248,6.0,6.0,28,0.00,,,0.00,WUHU216HW,2013-01-18 18:48:00,
2013-01-18 13:53:00,34.5,4.5,30.81,NW,315,4.9,6.0,28,0.00,,,0.00,WUHU216HW,2013-01-18 18:53:00,
2013-01-18 13:58:00,34.3,4.3,30.81,NW,315,4.9,6.0,28,0.00,,,0.00,WUHU216HW,2013-01-18 18:58:00,
2013-01-18 14:03:00,34.3,4.3,30.81,NW,315,0.0,4.9,28,0.00,,,0.00,WUHU216HW,2013-01-18 19:03:00,
2013-01-18 14:08:00,34.3,5.2,30.81,NNW,338,0.0,6.0,29,0.00,,,0.00,WUHU216HW,2013-01-18 19:08:00,
2013-01-18 14:13:00,34.5,5.4,30.81,West,270,0.0,6.0,29,0.00,,,0.00,WUHU216HW,2013-01-18 19:13:00,
2013-01-18 14:18:00,34.3,4.3,30.81,WSW,248,0.0,6.0,28,0.00,,,0.00,WUHU216HW,2013-01-18 19:18:00,
2013-01-18 14:23:00,34.3,4.3,30.81,WNW,293,5.1,6.0,28,0.00,,,0.00,WUHU216HW,2013-01-18 19:23:00,
2013-01-18 14:28:00,34.3,3.5,30.81,NW,315,0.0,5.1,27,0.00,,,0.00,WUHU216HW,2013-01-18 19:28:00,
2013-01-18 14:33:00,34.3,3.5,30.80,WNW,293,7.6,7.6,27,0.00,,,0.00,WUHU216HW,2013-01-18 19:33:00,
2013-01-18 14:38:00,34.3,3.5,30.80,North,0,4.4,7.6,27,0.00,,,0.00,WUHU216HW,2013-01-18 19:38:00,
2013-01-18 14:43:00,33.9,3.2,30.81,NW,315,0.0,7.6,27,0.00,,,0.00,WUHU216HW,2013-01-18 19:43:00,
2013-01-18 14:48:00,34.1,3.3,30.81,NW,315,0.0,4.4,27,0.00,,,0.00,WUHU216HW,2013-01-18 19:48:00,
2013-01-18 14:53:00,34.3,4.3,30.81,WNW,293,2.4,2.4,28,0.00,,,0.00,WUHU216HW,2013-01-18 19:53:00,
2013-01-18 14:58:00,34.5,4.5,30.81,SW,225,0.0,2.4,28,0.00,,,0.00,WUHU216HW,2013-01-18 19:58:00,
2013-01-18 15:03:00,34.3,3.5,30.81,WNW,293,3.8,3.8,27,0.00,,,0.00,WUHU216HW,2013-01-18 20:03:00,
2013-01-18 15:08:00,34.3,4.3,30.82,NNW,338,2.9,3.8,28,0.00,,,0.00,WUHU216HW,2013-01-18 20:08:00,
2013-01-18 15:13:00,34.3,3.5,30.82,WNW,293,3.3,3.8,27,0.00,,,0.00,WUHU216HW,2013-01-18 20:13:00,
2013-01-18 15:18:00,34.3,3.5,30.82,NW,315,5.1,5.1,27,0.00,,,0.00,WUHU216HW,2013-01-18 20:18:00,
2013-01-18 15:23:00,34.1,2.4,30.82,NNW,338,2.0,5.1,26,0.00,,,0.00,WUHU216HW,2013-01-18 20:23:00,
2013-01-18 15:28:00,33.8,2.1,30.82,WNW,293,6.9,6.9,26,0.00,,,0.00,WUHU216HW,2013-01-18 20:28:00,
2013-01-18 15:33:00,33.6,2.0,30.82,West,270,3.3,6.9,26,0.00,,,0.00,WUHU216HW,2013-01-18 20:33:00,
2013-01-18 15:38:00,33.2,1.7,30.82,NW,315,6.7,6.7,26,0.00,,,0.00,WUHU216HW,2013-01-18 20:38:00,
2013-01-18 15:43:00,32.9,1.4,30.82,WSW,248,0.0,6.7,26,0.00,,,0.00,WUHU216HW,2013-01-18 20:43:00,
2013-01-18 15:48:00,32.7,1.4,30.82,WNW,293,0.0,6.7,26,0.00,,,0.00,WUHU216HW,2013-01-18 20:48:00,
2013-01-18 15:53:00,32.7,2.1,30.82,NW,315,0.0,6.0,27,0.00,,,0.00,WUHU216HW,2013-01-18 20:53:00,
2013-01-18 15:58:00,32.7,2.1,30.82,WNW,293,0.0,0.0,27,0.00,,,0.00,WUHU216HW,2013-01-18 20:58:00,
2013-01-18 16:03:00,32.7,2.1,30.82,WNW,293,0.0,4.0,27,0.00,,,0.00,WUHU216HW,2013-01-18 21:03:00,
2013-01-18 16:08:00,32.5,1.9,30.82,WSW,248,0.0,4.0,27,0.00,,,0.00,WUHU216HW,2013-01-18 21:08:00,
2013-01-18 16:13:00,32.3,1.8,30.83,NW,315,0.0,3.1,27,0.00,,,0.00,WUHU216HW,2013-01-18 21:13:00,
2013-01-18 16:18:00,32.1,1.6,30.82,WNW,293,0.0,3.5,27,0.00,,,0.00,WUHU216HW,2013-01-18 21:18:00,
2013-01-18 16:23:00,31.8,1.3,30.82,WNW,293,0.0,3.5,27,0.00,,,0.00,WUHU216HW,2013-01-18 21:23:00,
2013-01-18 16:28:00,31.6,1.1,30.82,WSW,248,0.0,0.0,27,0.00,,,0.00,WUHU216HW,2013-01-18 21:28:00,
2013-01-18 16:33:00,31.2,0.8,30.82,NW,315,3.8,3.8,27,0.00,,,0.00,WUHU216HW,2013-01-18 21:33:00,
2013-01-18 16:38:00,30.9,0.5,30.83,WNW,293,3.1,3.8,27,0.00,,,0.00,WUHU216HW,2013-01-18 21:38:00,
2013-01-18 16:43:00,30.7,1.2,30.83,NW,315,0.0,6.4,28,0.00,,,0.00,WUHU216HW,2013-01-18 21:43:00,
2013-01-18 16:48:00,30.3,0.9,30.83,WNW,293,0.0,6.4,28,0.00,,,0.00,WUHU216HW,2013-01-18 21:48:00,
2013-01-18 16:53:00,30.2,0.7,30.83,NW,315,0.0,1.5,28,0.00,,,0.00,WUHU216HW,2013-01-18 21:53:00,
2013-01-18 16:58:00,30.0,0.5,30.84,NNW,338,0.0,0.0,28,0.00,,,0.00,WUHU216HW,2013-01-18 21:58:00,
2013-01-18 17:03:00,30.0,1.4,30.83,WNW,293,0.0,0.0,29,0.00,,,0.00,WUHU216HW,2013-01-18 22:03:00,
2013-01-18 17:08:00,29.8,0.4,30.83,NNW,338,0.0,2.4,28,0.00,,,0.00,WUHU216HW,2013-01-18 22:08:00,
2013-01-18 17:13:00,29.6,0.2,30.84,North,0,0.0,2.4,28,0.00,,,0.00,WUHU216HW,2013-01-18 22:13:00,
2013-01-18 17:18:00,29.4,0.1,30.84,North,0,0.0,0.0,28,0.00,,,0.00,WUHU216HW,2013-01-18 22:18:00,
2013-01-18 17:23:00,29.4,0.1,30.85,NW,315,0.0,0.0,28,0.00,,,0.00,WUHU216HW,2013-01-18 22:23:00,
2013-01-18 17:28:00,29.4,0.9,30.85,WNW,293,0.0,0.0,29,0.00,,,0.00,WUHU216HW,2013-01-18 22:28:00,
2013-01-18 17:33:00,29.3,0.8,30.85,NNW,338,0.0,0.0,29,0.00,,,0.00,WUHU216HW,2013-01-18 22:33:00,
2013-01-18 17:38:00,29.3,0.0,30.86,SSW,203,0.0,0.0,28,0.00,,,0.00,WUHU216HW,2013-01-18 22:38:00,
2013-01-18 17:43:00,29.1,-0.2,30.86,NNW,338,0.0,0.0,28,0.00,,,0.00,WUHU216HW,2013-01-18 22:43:00,
2013-01-18 17:48:00,28.9,-1.2,30.86,WSW,248,0.0,0.0,27,0.00,,,0.00,WUHU216HW,2013-01-18 22:48:00,
2013-01-18 17:53:00,28.9,-1.2,30.86,WSW,248,0.0,0.0,27,0.00,,,0.00,WUHU216HW,2013-01-18 22:53:00,
2013-01-18 17:58:00,28.9,-1.2,30.86,West,270,0.0,0.0,27,0.00,,,0.00,WUHU216HW,2013-01-18 22:58:00,
2013-01-18 18:03:00,28.9,-1.2,30.86,NNW,338,0.0,0.0,27,0.00,,,0.00,WUHU216HW,2013-01-18 23:03:00,
2013-01-18 18:08:00,28.9,-2.9,30.86,NNW,338,0.0,0.0,25,0.00,,,0.00,WUHU216HW,2013-01-18 23:08:00,
2013-01-18 18:13:00,28.9,-1.2,30.86,North,0,0.0,0.0,27,0.00,,,0.00,WUHU216HW,2013-01-18 23:13:00,
2013-01-18 18:18:00,28.9,-2.0,30.87,North,0,0.0,0.0,26,0.00,,,0.00,WUHU216HW,2013-01-18 23:18:00,
2013-01-18 18:23:00,28.9,-2.9,30.86,SE,135,0.0,3.8,25,0.00,,,0.00,WUHU216HW,2013-01-18 23:23:00,
2013-01-18 18:28:00,28.9,-2.0,30.87,NW,315,0.0,3.8,26,0.00,,,0.00,WUHU216HW,2013-01-18 23:28:00,
2013-01-18 18:33:00,28.9,-2.0,30.86,North,0,0.0,0.0,26,0.00,,,0.00,WUHU216HW,2013-01-18 23:33:00,
2013-01-18 18:38:00,28.9,-2.0,30.87,North,0,5.5,5.5,26,0.00,,,0.00,WUHU216HW,2013-01-18 23:38:00,
2013-01-18 18:43:00,28.9,-2.0,30.86,NW,315,0.0,5.5,26,0.00,,,0.00,WUHU216HW,2013-01-18 23:43:00,
2013-01-18 18:48:00,28.9,-0.3,30.87,East,90,0.0,0.0,28,0.00,,,0.00,WUHU216HW,2013-01-18 23:48:00,
2013-01-18 18:53:00,28.9,-1.2,30.87,West,270,0.0,2.6,27,0.00,,,0.00,WUHU216HW,2013-01-18 23:53:00,
2013-01-18 18:58:00,28.9,-1.2,30.87,NNW,338,0.0,2.6,27,0.00,,,0.00,WUHU216HW,2013-01-18 23:58:00,
2013-01-18 19:03:00,28.9,-0.3,30.86,NNW,338,0.0,0.0,28,0.00,,,0.00,WUHU216HW,2013-01-19 00:03:00,
2013-01-18 19:08:00,28.9,-0.3,30.87,NNW,338,0.0,0.0,28,0.00,,,0.00,WUHU216HW,2013-01-19 00:08:00,
2013-01-18 19:13:00,28.9,-0.3,30.87,NNE,23,3.3,3.3,28,0.00,,,0.00,WUHU216HW,2013-01-19 00:13:00,
2013-01-18 19:18:00,28.7,-0.5,30.87,NNE,23,0.0,3.3,28,0.00,,,0.00,WUHU216HW,2013-01-19 00:18:00,
2013-01-18 19:23:00,28.9,-0.3,30.87,NNW,338,4.2,4.2,28,0.00,,,0.00,WUHU216HW,2013-01-19 00:23:00,
2013-01-18 19:28:00,28.7,-0.5,30.87,NNW,338,0.0,4.2,28,0.00,,,0.00,WUHU216HW,2013-01-19 00:28:00,
2013-01-18 19:33:00,28.7,0.3,30.86,ESE,113,0.0,3.8,29,0.00,,,0.00,WUHU216HW,2013-01-19 00:33:00,
2013-01-18 19:38:00,28.9,1.3,30.86,East,90,0.0,0.0,30,0.00,,,0.00,WUHU216HW,2013-01-19 00:38:00,
2013-01-18 19:43:00,28.9,1.3,30.86,NNE,23,0.0,0.0,30,0.00,,,0.00,WUHU216HW,2013-01-19 00:43:00,
2013-01-18 19:48:00,28.9,1.9,30.86,SE,135,0.0,0.0,31,0.00,,,0.00,WUHU216HW,2013-01-19 00:48:00,
2013-01-18 19:53:00,28.7,2.4,30.86,WNW,293,0.0,0.0,32,0.00,,,0.00,WUHU216HW,2013-01-19 00:53:00,
2013-01-18 19:58:00,28.9,2.6,30.86,NNE,23,0.0,0.0,32,0.00,,,0.00,WUHU216HW,2013-01-19 00:58:00,
2013-01-18 20:03:00,28.7,2.4,30.86,West,270,0.0,3.8,32,0.00,,,0.00,WUHU216HW,2013-01-19 01:03:00,
2013-01-18 20:08:00,28.9,2.6,30.86,SE,135,0.0,3.8,32,0.00,,,0.00,WUHU216HW,2013-01-19 01:08:00,
2013-01-18 20:13:00,28.9,1.3,30.86,WNW,293,0.0,0.0,30,0.00,,,0.00,WUHU216HW,2013-01-19 01:13:00,
2013-01-18 20:18:00,28.9,2.6,30.86,East,90,0.0,5.1,32,0.00,,,0.00,WUHU216HW,2013-01-19 01:18:00,
2013-01-18 20:23:00,28.9,1.3,30.86,SE,135,0.0,5.1,30,0.00,,,0.00,WUHU216HW,2013-01-19 01:23:00,
2013-01-18 20:28:00,28.9,2.6,30.86,North,0,0.0,0.0,32,0.00,,,0.00,WUHU216HW,2013-01-19 01:28:00,
2013-01-18 20:33:00,28.9,1.3,30.85,NE,45,0.0,0.0,30,0.00,,,0.00,WUHU216HW,2013-01-19 01:33:00,
2013-01-18 20:38:00,28.9,1.9,30.85,NNE,23,0.0,0.0,31,0.00,,,0.00,WUHU216HW,2013-01-19 01:38:00,
2013-01-18 20:43:00,28.9,1.9,30.85,NNW,338,0.0,0.0,31,0.00,,,0.00,WUHU216HW,2013-01-19 01:43:00,
2013-01-18 20:48:00,29.1,4.0,30.85,ESE,113,0.0,0.0,34,0.00,,,0.00,WUHU216HW,2013-01-19 01:48:00,
2013-01-18 20:53:00,29.1,4.0,30.84,NNW,338,0.0,3.1,34,0.00,,,0.00,WUHU216HW,2013-01-19 01:53:00,
2013-01-18 20:59:00,29.1,4.0,30.85,NNW,338,0.0,3.1,34,0.00,,,0.00,WUHU216HW,2013-01-19 01:59:00,
2013-01-18 21:04:00,29.1,3.3,30.84,ESE,113,0.0,0.0,33,0.00,,,0.00,WUHU216HW,2013-01-19 02:04:00,
2013-01-18 21:09:00,29.1,4.6,30.84,NNE,23,0.0,0.0,35,0.00,,,0.00,WUHU216HW,2013-01-19 02:09:00,
2013-01-18 21:14:00,29.1,4.6,30.84,North,0,0.0,0.0,35,0.00,,,0.00,WUHU216HW,2013-01-19 02:14:00,
2013-01-18 21:19:00,29.1,5.2,30.84,NE,45,0.0,0.0,36,0.00,,,0.00,WUHU216HW,2013-01-19 02:19:00,
2013-01-18 21:24:00,29.1,5.2,30.85,NE,45,0.0,0.0,36,0.00,,,0.00,WUHU216HW,2013-01-19 02:24:00,
2013-01-18 21:29:00,29.3,4.8,30.84,ESE,113,0.0,2.6,35,0.00,,,0.00,WUHU216HW,2013-01-19 02:29:00,
2013-01-18 21:34:00,29.3,6.0,30.85,SSW,203,0.0,2.6,37,0.00,,,0.00,WUHU216HW,2013-01-19 02:34:00,
2013-01-18 21:39:00,29.3,6.7,30.86,NE,45,0.0,2.4,38,0.00,,,0.00,WUHU216HW,2013-01-19 02:39:00,
2013-01-18 21:44:00,29.3,5.4,30.85,NE,45,0.0,2.4,36,0.00,,,0.00,WUHU216HW,2013-01-19 02:44:00,
2013-01-18 21:49:00,29.4,6.8,30.86,SE,135,0.0,0.0,38,0.00,,,0.00,WUHU216HW,2013-01-19 02:49:00,
2013-01-18 21:54:00,29.3,6.7,30.85,NNW,338,0.0,0.0,38,0.00,,,0.00,WUHU216HW,2013-01-19 02:54:00,
2013-01-18 21:59:00,29.3,6.7,30.84,North,0,0.0,0.0,38,0.00,,,0.00,WUHU216HW,2013-01-19 02:59:00,
2013-01-18 22:04:00,29.4,7.5,30.84,NNE,23,3.5,3.5,39,0.00,,,0.00,WUHU216HW,2013-01-19 03:04:00,
2013-01-18 22:09:00,29.4,7.5,30.83,NNE,23,0.0,3.5,39,0.00,,,0.00,WUHU216HW,2013-01-19 03:09:00,
2013-01-18 22:14:00,29.4,7.5,30.83,NNE,23,0.0,0.0,39,0.00,,,0.00,WUHU216HW,2013-01-19 03:14:00,
2013-01-18 22:19:00,29.4,7.5,30.83,ESE,113,0.0,0.0,39,0.00,,,0.00,WUHU216HW,2013-01-19 03:19:00,
2013-01-18 22:24:00,29.4,6.8,30.83,NE,45,0.0,0.0,38,0.00,,,0.00,WUHU216HW,2013-01-19 03:24:00,
2013-01-18 22:29:00,29.3,6.7,30.83,West,270,0.0,0.0,38,0.00,,,0.00,WUHU216HW,2013-01-19 03:29:00,
2013-01-18 22:34:00,29.3,6.0,30.83,WNW,293,0.0,4.0,37,0.00,,,0.00,WUHU216HW,2013-01-19 03:34:00,
2013-01-18 22:39:00,29.4,7.3,30.83,West,270,0.0,4.0,39,0.00,,,0.00,WUHU216HW,2013-01-19 03:39:00,
2013-01-18 22:44:00,29.3,6.7,30.83,NE,45,4.2,4.2,38,0.00,,,0.00,WUHU216HW,2013-01-19 03:44:00,
2013-01-18 22:49:00,29.4,6.8,30.82,West,270,0.0,4.2,38,0.00,,,0.00,WUHU216HW,2013-01-19 03:49:00,
2013-01-18 22:54:00,29.4,7.5,30.81,West,270,2.2,4.2,40,0.00,,,0.00,WUHU216HW,2013-01-19 03:54:00,
2013-01-18 22:59:00,29.4,7.5,30.81,North,0,0.0,2.2,39,0.00,,,0.00,WUHU216HW,2013-01-19 03:59:00,
2013-01-18 23:04:00,29.4,8.6,30.81,NW,315,0.0,2.2,41,0.00,,,0.00,WUHU216HW,2013-01-19 04:04:00,
2013-01-18 23:09:00,29.6,9.3,30.81,NE,45,0.0,2.0,42,0.00,,,0.00,WUHU216HW,2013-01-19 04:09:00,
2013-01-18 23:14:00,29.6,9.3,30.81,NNE,23,0.0,0.0,42,0.00,,,0.00,WUHU216HW,2013-01-19 04:14:00,
2013-01-18 23:19:00,29.6,9.3,30.81,East,90,0.0,0.0,42,0.00,,,0.00,WUHU216HW,2013-01-19 04:19:00,
2013-01-18 23:24:00,29.4,9.6,30.80,NE,45,0.0,0.2,43,0.00,,,0.00,WUHU216HW,2013-01-19 04:24:00,
2013-01-18 23:29:00,29.4,9.6,30.80,ESE,113,0.0,0.2,43,0.00,,,0.00,WUHU216HW,2013-01-19 04:29:00,
2013-01-18 23:34:00,29.4,9.6,30.80,SE,135,2.2,2.2,43,0.00,,,0.00,WUHU216HW,2013-01-19 04:34:00,
2013-01-18 23:39:00,29.4,9.8,30.80,NNW,338,0.0,2.2,43,0.00,,,0.00,WUHU216HW,2013-01-19 04:39:00,
2013-01-18 23:44:00,29.6,9.8,30.79,NE,45,0.0,1.7,43,0.00,,,0.00,WUHU216HW,2013-01-19 04:44:00,
2013-01-18 23:49:00,29.6,9.8,30.79,SE,135,0.0,1.7,43,0.00,,,0.00,WUHU216HW,2013-01-19 04:49:00,
2013-01-18 23:54:00,29.6,9.8,30.79,ENE,68,0.0,0.0,43,0.00,,,0.00,WUHU216HW,2013-01-19 04:54:00,
2013-01-18 23:59:00,29.6,9.8,30.78,NE,45,2.0,2.0,43,0.00,,,0.00,WUHU216HW,2013-01-19 04:59:00,